Location:  
MeteoStar


Sort by weather type Sort by elevation Sort by visibility Sort from west to east north Sort from north to south Alphabetically Sort from strongest wind speed Sort from lowest to highest pressure Sort from highest to lowest dew point temperature Sort coolest temperatures to warmest Sort warm temperatures to coolest
 Metric

Current Observations for United Kingdom sorted by weather type

Wattisham16:50ZLight Showers39 3641025.3N 6 35285
Wittering16:50ZLight Rain41 37171025.3NE 5 38275
Scatsa / Shetland Island16:20ZShowers nearby43 3681027.2SSW 7 3972
Humberside16:20ZShowers nearby45 3941026.2NNE 7 41101
Herstmonceux17:00ZHaze41 3451025.0NE 4 38170
South Uist Range17:00ZHaze42 3851024.5S 11 3632
Northolt16:50ZHaze43 3451025.2NNE 7 39124
Middle Wallop16:50ZHaze43 3451025.3NNE 9 38298
Brize Norton16:50ZHaze43 3751025.3E 3 43288
Benson16:32ZHaze41 3731025.3N 4 38206
Stansted Airport16:20ZHaze39 3731025.4NNW 4 36347
Leuchars16:50ZHaze41 3671028.1ESE 7 3639
Yeovilton16:50ZHaze45 3441025.2NNE 8 4175
Eskdalemuir17:00ZCloudy40 33251028NE 2 40793
Mildenhall Royal Air Force Base16:56ZCloudy41 41151025.6NNE 3 4132
Lakenheath Royal Air Force Base16:56ZCloudy41 41151025.8NNE 5 3832
London / Heathrow Airport16:20ZCloudy43 3651026.2NE 5 4078
Luton Airport 16:20ZCloudy39 3741025.5NNE 4 36524
Cardiff-Wales Airport16:20ZCloudy45 3641026.2ENE 7 41219
Camborne17:00ZMostly Cloudy43 3371025.5SE 5 40285
Topcliffe Royal Air Force Base 16:50ZMostly Cloudy41 36251027.2NE 7 3691
Leconfield16:50ZMostly Cloudy43 39171027.1N 4 4119
Linton-On-Ouse16:50ZMostly Cloudy45 36171027.1NE 6 4252
Odiham16:50ZMostly Cloudy41 3451025.4N 8 36403
Cranfield16:20ZMostly Cloudy43 3941025.4NE 5 40364
Cambridge16:20ZMostly Cloudy41 3741026.2N 4 3849
Tiree16:20ZMostly Cloudy45 3971025.1S 16 3839
Valley16:50ZMostly Cloudy45 39251026.1NE 6 423
Shawbury16:50ZMostly Cloudy43 37151026.3NE 3 43249
Pembrey Sands16:50ZMostly Cloudy45 3961026.1SSW 9 409
East Midlands16:20ZMostly Cloudy41 3761026.3NNW 6 37308
Hawarden16:20ZMostly Cloudy46 3741027.1N 2 4632
Southend-On-Sea 16:20ZMostly Cloudy41 3441025.2E 5 3849
London City Airport16:20ZMostly Cloudy43 3461026.1N 3 4316
Shoreham Airport16:20ZMostly Cloudy43 3461024.1NNE 10 376
Liverpool Airport 16:20ZMostly Cloudy45 3741027.2WSW 3 4585
Bristol / Lulsgate 16:20ZMostly Cloudy43 3441025.5NNE 8 38620
St Athan Royal Air Force Base16:50ZMostly Cloudy45 3471025.2ENE 6 42164
Manchester Airport16:20ZMostly Cloudy45 34131026.3N 2 45226
Birmingham / Airport16:20ZMostly Cloudy43 36131026.3N 5 40324
Belfast / Aldergrove Airport16:20ZMostly Cloudy45 39131026.3S 5 42265
Lerwick17:00ZPartly Cloudy39 35201027.0WSW 4 36269
Marham16:50ZPartly Cloudy39 34151026.2NE 6 3575
Cranwell16:50ZPartly Cloudy41 36251026.3NE 6 37219
Waddington16:50ZPartly Cloudy41 37251026.3NNE 5 38223
Coningsby Royal Air Force Base16:50ZPartly Cloudy43 3451026.1NE 7 3922
Fairford Royal Air Force Base16:31ZPartly Cloudy41 3641026.0CALM41285
Norwich Weather Centre16:20ZPartly Cloudy41 3641026.2NNE 6 3745
Prestwick Airport16:20ZPartly Cloudy45 3781027.2WNW 2 4565
Farnborough16:20ZPartly Cloudy43 3441025.3N 9 38213
London / Gatwick Airport16:20ZPartly Cloudy43 3251025.3NNE 8 38203
Biggin Hill 16:20ZPartly Cloudy41 3441025.6NNE 6 37600
Jersey Airport16:20ZPartly Cloudy45 3491023.3NE 10 40275
Alderney / Channel Island16:20ZPartly Cloudy43 N/A51023.3NE 12 232
Culdrose16:50ZPartly Cloudy43 3471025.3E 10 37255
Boscombe Down16:50ZPartly Cloudy41 3491025.4NNE 9 35406
Nottingham Weather Centre17:00ZClear40 37201027.1NNE 2 40383
Leeming16:50ZClear41 36121027.2NE 4 38131
Exeter Airport16:20ZClear45 3441025.2ENE 6 4298
Lossiemouth16:50ZClear41 3771026.2E 5 3842
Boulmer16:50ZClear39 3771028.2N 3975
Kinloss16:50ZClear45 28201026.1S 4 4322
Dundee / Riverside16:20ZClear43 3681027.1E 4 4113
Benbecula16:20ZClear43 3781025.1S 9 3819
Edinburgh Airport16:20ZClear41 3681028.2NE 6 37134
Glasgow Airport16:20ZClear45 3681027.1N 2 4526
Inverness / Dalcross16:20ZClear45 3281027.1SSW 5 4229
Aberdeen / Dyce16:20ZClear43 3681027.3SSE 8 38213
Sumburgh Cape 16:20ZClear43 36111027.1SSW 4 4116
Kirkwall Airport16:20ZClear43 37111027.2S 5 4068
Spadeadam16:50ZClear41 3261026.8ESE 6 371066
Tees-Side16:20ZClear43 3761027.2NE 8 38121
Newcastle 16:20ZClear41 36151027.3ENE 5 38265
Isle Of Man / Ronaldsway Airport16:20ZClear45 37151027.2SE 7 4155
Leeds And Bradford16:20ZClear43 3441026.5NNE 7 39682
Blackpool Airport16:20ZClear45 3741027.1NW 7 4132
Carlisle16:20ZClear45 3441027.2E 5 4285
Lydd Airport 16:20ZClear41 3441025.1NE 11 349
Guernsey Airport16:20ZClear43 3291023.3ENE 11 37334
Southampton / Weather Centre16:20ZClear43 3051025.1NNE 7 3929
Bournemouth Airport16:20ZClear45 3441025.1NE 8 4136
Scilly; Saint MaryS16:20ZClear46 36251025.2ESE 15 40101
Staverton Private 16:20ZClear46 37131026.2NE 3 4695
Eglinton / Londonderr16:20ZClear46 39131025.1S 8 4229
Belfast / Harbour16:20ZClear45 39131026.1SSE 7 4116


Atlantic
Tropical Watch